TimePDT,TemperatureF,Dew PointF,Humidity,Sea Level PressureIn,VisibilityMPH,Wind Direction,Wind SpeedMPH,Gust SpeedMPH,PrecipitationIn,Events,Conditions,WindDirDegrees,DateUTC
12:53 AM,64.0,52.0,65,29.98,10.0,Calm,Calm,-,N/A,,Clear,0,2011-10-18 07:53:00
1:53 AM,63.0,52.0,67,29.98,10.0,Calm,Calm,-,N/A,,Clear,0,2011-10-18 08:53:00
2:53 AM,62.1,52.0,70,29.97,10.0,Calm,Calm,-,N/A,,Clear,0,2011-10-18 09:53:00
3:53 AM,60.1,53.1,78,29.96,10.0,Calm,Calm,-,N/A,,Clear,0,2011-10-18 10:53:00
4:53 AM,59.0,53.1,81,29.98,10.0,Calm,Calm,-,N/A,,Clear,0,2011-10-18 11:53:00
5:53 AM,59.0,53.1,81,29.98,10.0,Calm,Calm,-,N/A,,Clear,0,2011-10-18 12:53:00
6:53 AM,57.0,52.0,83,29.98,10.0,Calm,Calm,-,N/A,,Clear,0,2011-10-18 13:53:00
8:53 AM,62.1,55.0,78,30.01,6.0,West,4.6,-,N/A,,Haze,270,2011-10-18 15:53:00
9:53 AM,66.9,55.0,66,30.01,7.0,West,5.8,-,N/A,,Clear,280,2011-10-18 16:53:00
10:53 AM,72.0,55.9,57,29.99,6.0,West,4.6,-,N/A,,Haze,280,2011-10-18 17:53:00
11:53 AM,75.9,57.0,52,29.97,6.0,West,4.6,-,N/A,,Haze,280,2011-10-18 18:53:00
12:53 PM,81.0,55.9,42,29.94,6.0,Variable,4.6,-,N/A,,Haze,0,2011-10-18 19:53:00
1:53 PM,84.0,55.0,37,29.91,6.0,West,9.2,-,N/A,,Haze,280,2011-10-18 20:53:00
2:53 PM,86.0,55.0,35,29.89,6.0,West,10.4,-,N/A,,Haze,260,2011-10-18 21:53:00
3:53 PM,84.9,55.0,36,29.88,6.0,West,8.1,-,N/A,,Haze,280,2011-10-18 22:53:00
4:53 PM,81.0,57.0,44,29.88,6.0,West,8.1,-,N/A,,Haze,260,2011-10-18 23:53:00
6:53 PM,73.9,55.9,53,29.90,9.0,West,3.5,-,N/A,,Clear,280,2011-10-19 01:53:00
7:53 PM,71.1,57.0,61,29.92,8.0,Calm,Calm,-,N/A,,Clear,0,2011-10-19 02:53:00
8:53 PM,69.1,57.0,65,29.92,7.0,Calm,Calm,-,N/A,,Clear,0,2011-10-19 03:53:00
9:53 PM,66.9,57.0,70,29.93,7.0,Calm,Calm,-,N/A,,Clear,0,2011-10-19 04:53:00
10:53 PM,64.0,57.0,78,29.93,7.0,West,3.5,-,N/A,,Clear,280,2011-10-19 05:53:00
11:53 PM,63.0,55.9,78,29.91,8.0,Calm,Calm,-,N/A,,Clear,0,2011-10-19 06:53:00